TimeEST,TemperatureF,Dew PointF,Humidity,Sea Level PressureIn,VisibilityMPH,Wind Direction,Wind SpeedMPH,Gust SpeedMPH,PrecipitationIn,Events,Conditions,WindDirDegrees,DateUTC
12:15 AM,32.0,26.6,80,30.04,10.0,NW,4.6,-,N/A,,Overcast,310,2011-11-29 05:15:00
12:35 AM,30.2,26.6,86,30.05,10.0,WNW,4.6,-,N/A,,Scattered Clouds,300,2011-11-29 05:35:00
12:55 AM,30.2,24.8,80,30.05,10.0,NW,5.8,-,N/A,,Mostly Cloudy,310,2011-11-29 05:55:00
1:15 AM,30.2,26.6,86,30.03,10.0,WNW,6.9,-,N/A,,Overcast,290,2011-11-29 06:15:00
1:35 AM,30.2,24.8,80,30.04,10.0,West,4.6,-,N/A,,Scattered Clouds,280,2011-11-29 06:35:00
1:55 AM,28.4,24.8,86,30.03,10.0,West,5.8,-,N/A,,Partly Cloudy,280,2011-11-29 06:55:00
2:15 AM,28.4,24.8,86,30.03,10.0,WNW,6.9,-,N/A,,Scattered Clouds,300,2011-11-29 07:15:00
2:35 AM,28.4,24.8,86,30.04,10.0,NW,6.9,-,N/A,,Mostly Cloudy,310,2011-11-29 07:35:00
2:55 AM,28.4,24.8,86,30.04,10.0,NW,6.9,-,N/A,,Mostly Cloudy,310,2011-11-29 07:55:00
3:15 AM,28.4,24.8,86,30.03,10.0,NNW,3.5,-,N/A,,Mostly Cloudy,330,2011-11-29 08:15:00
4:15 AM,28.4,24.8,86,30.07,10.0,South,4.6,-,N/A,,Overcast,170,2011-11-29 09:15:00
4:35 AM,28.4,24.8,86,30.08,10.0,SSE,3.5,-,N/A,,Overcast,160,2011-11-29 09:35:00
4:55 AM,30.2,24.8,80,30.06,10.0,Calm,Calm,-,N/A,,Overcast,0,2011-11-29 09:55:00
5:15 AM,30.2,24.8,80,30.06,10.0,Calm,Calm,-,N/A,,Overcast,0,2011-11-29 10:15:00
5:35 AM,28.4,24.8,86,30.05,10.0,Calm,Calm,-,N/A,,Overcast,0,2011-11-29 10:35:00
5:55 AM,30.2,26.6,86,30.05,10.0,Calm,Calm,-,N/A,,Overcast,0,2011-11-29 10:55:00
6:15 AM,30.2,24.8,80,30.07,10.0,WNW,3.5,-,N/A,,Overcast,300,2011-11-29 11:15:00
6:35 AM,30.2,24.8,80,30.08,10.0,Calm,Calm,-,N/A,,Overcast,0,2011-11-29 11:35:00
6:55 AM,30.2,26.6,86,30.08,10.0,NE,4.6,-,N/A,,Overcast,40,2011-11-29 11:55:00
7:15 AM,30.2,26.6,86,30.08,10.0,NE,5.8,-,N/A,,Overcast,50,2011-11-29 12:15:00
7:35 AM,32.0,26.6,80,30.08,10.0,NNE,8.1,-,N/A,,Overcast,20,2011-11-29 12:35:00
7:55 AM,32.0,28.4,87,30.08,5.0,North,9.2,-,N/A,,Overcast,10,2011-11-29 12:55:00
8:15 AM,33.8,26.6,75,30.09,10.0,North,9.2,-,N/A,,Overcast,10,2011-11-29 13:15:00
8:35 AM,33.8,26.6,75,30.12,10.0,North,4.6,-,N/A,,Overcast,10,2011-11-29 13:35:00
8:55 AM,33.8,24.8,70,30.11,10.0,North,9.2,-,N/A,,Overcast,10,2011-11-29 13:55:00
9:15 AM,33.8,24.8,70,30.11,10.0,North,12.7,-,N/A,,Mostly Cloudy,360,2011-11-29 14:15:00
9:35 AM,33.8,23.0,65,30.11,10.0,North,15.0,-,N/A,,Scattered Clouds,360,2011-11-29 14:35:00
10:35 AM,33.8,21.2,60,30.11,10.0,North,15.0,-,N/A,,Partly Cloudy,10,2011-11-29 15:35:00
10:55 AM,33.8,19.4,56,30.12,10.0,North,9.2,17.3,N/A,,Clear,10,2011-11-29 15:55:00
11:35 AM,33.8,19.4,56,30.09,10.0,North,13.8,18.4,N/A,,Overcast,10,2011-11-29 16:35:00
11:55 AM,33.8,19.4,56,30.09,10.0,North,15.0,-,N/A,,Overcast,10,2011-11-29 16:55:00
12:15 PM,33.8,21.2,60,30.08,10.0,North,11.5,17.3,N/A,,Overcast,10,2011-11-29 17:15:00
12:35 PM,33.8,19.4,56,30.08,10.0,North,11.5,18.4,N/A,,Overcast,10,2011-11-29 17:35:00
12:55 PM,33.8,19.4,56,30.08,10.0,North,11.5,-,N/A,,Mostly Cloudy,10,2011-11-29 17:55:00
1:55 PM,32.0,17.6,55,30.06,10.0,North,12.7,-,N/A,,Clear,10,2011-11-29 18:55:00
2:15 PM,32.0,17.6,55,30.05,10.0,NNE,13.8,-,N/A,,Clear,20,2011-11-29 19:15:00
2:35 PM,32.0,17.6,55,30.05,10.0,NNE,13.8,-,N/A,,Clear,20,2011-11-29 19:35:00
2:55 PM,32.0,17.6,55,30.04,10.0,North,11.5,-,N/A,,Clear,10,2011-11-29 19:55:00
3:15 PM,32.0,17.6,55,30.04,10.0,NNE,9.2,-,N/A,,Clear,20,2011-11-29 20:15:00
3:35 PM,32.0,17.6,55,30.04,10.0,NNE,10.4,-,N/A,,Clear,20,2011-11-29 20:35:00
3:55 PM,30.2,17.6,60,30.03,10.0,North,13.8,19.6,N/A,,Clear,10,2011-11-29 20:55:00
4:15 PM,30.2,17.6,60,30.03,10.0,North,12.7,18.4,N/A,,Clear,360,2011-11-29 21:15:00
4:35 PM,30.2,17.6,60,30.05,10.0,North,11.5,17.3,N/A,,Clear,10,2011-11-29 21:35:00
4:55 PM,30.2,15.8,55,30.04,10.0,North,13.8,-,N/A,,Clear,10,2011-11-29 21:55:00
5:15 PM,28.4,15.8,59,30.05,10.0,North,11.5,16.1,N/A,,Clear,10,2011-11-29 22:15:00
5:35 PM,28.4,15.8,59,30.04,10.0,North,12.7,-,N/A,,Clear,360,2011-11-29 22:35:00
5:55 PM,28.4,15.8,59,30.02,10.0,North,13.8,-,N/A,,Clear,360,2011-11-29 22:55:00
6:15 PM,28.4,15.8,59,30.00,10.0,North,15.0,18.4,N/A,,Clear,360,2011-11-29 23:15:00
6:35 PM,28.4,15.8,59,30.00,10.0,North,15.0,20.7,N/A,,Clear,360,2011-11-29 23:35:00
6:55 PM,26.6,15.8,64,30.00,10.0,North,16.1,24.2,N/A,,Clear,10,2011-11-29 23:55:00
7:15 PM,26.6,15.8,64,29.98,10.0,North,17.3,-,N/A,,Clear,360,2011-11-30 00:15:00
7:35 PM,26.6,15.8,64,29.97,10.0,North,17.3,25.3,N/A,,Clear,360,2011-11-30 00:35:00
7:55 PM,26.6,15.8,64,29.98,10.0,North,13.8,23.0,N/A,,Clear,360,2011-11-30 00:55:00
8:15 PM,26.6,15.8,64,29.98,10.0,North,15.0,24.2,N/A,,Clear,360,2011-11-30 01:15:00
8:35 PM,26.6,15.8,64,29.98,10.0,North,10.4,-,N/A,,Clear,350,2011-11-30 01:35:00
8:55 PM,26.6,15.8,64,29.98,10.0,North,13.8,-,N/A,,Clear,360,2011-11-30 01:55:00
9:55 PM,24.8,14.0,64,29.94,10.0,North,11.5,-,N/A,,Clear,360,2011-11-30 02:55:00
10:15 PM,24.8,15.8,69,29.94,10.0,North,10.4,-,N/A,,Clear,350,2011-11-30 03:15:00
10:35 PM,24.8,15.8,69,29.92,10.0,North,9.2,-,N/A,,Clear,350,2011-11-30 03:35:00
10:55 PM,24.8,14.0,64,29.91,10.0,North,10.4,-,N/A,,Clear,350,2011-11-30 03:55:00
11:15 PM,24.8,15.8,69,29.91,10.0,NNW,9.2,-,N/A,,Clear,340,2011-11-30 04:15:00
11:35 PM,24.8,14.0,64,29.91,10.0,NNW,10.4,-,N/A,,Clear,340,2011-11-30 04:35:00
11:55 PM,24.8,14.0,64,29.89,10.0,North,15.0,-,N/A,,Clear,360,2011-11-30 04:55:00